Weather History for Rutland, VT

Change the Weather History Date:

Tuesday, February 26, 2013

  Actual Average Record
Temperature  
Mean Temperature 34 °F -  
Max Temperature 39 °F - 65 °F (1957)
Min Temperature 28 °F - -14 °F (1993)
Degree Days  
Heating Degree Days 31    
Month to date heating degree days 1091  
Since 1 July heating degree days 4816  
Cooling Degree Days 0    
Month to date cooling degree days 0  
Year to date cooling degree days 0  
Moisture  
Dew Point 27 °F    
Average Humidity 77    
Maximum Humidity 100    
Minimum Humidity 54    
Precipitation  
Precipitation 0.00 in - 0.79 in (1979)
Month to date precipitation 0.26  
Year to date precipitation 1.50  
Sea Level Pressure  
Sea Level Pressure 30.22 in    
Wind  
Wind Speed 6 mph (SE)    
Max Wind Speed 16 mph    
Max Gust Speed 22 mph    
Visibility 7 miles    
Events      
T = Trace of Precipitation, MM = Missing Value Source: NWS Daily Summary

Daily Weather History Graph

Daily Weather History Graph

Search for Another Location

Airport:

Trip Planner

Search our weather history database for the weather conditions in past years. The results will help you decide how hot, cold, wet, or windy it might be!

Date:

Astronomy

Feb. 26, 2013 Rise Set
Actual Time 6:32 AM EST 5:37 PM EST
Civil Twilight 6:04 AM EST 6:05 PM EST
Nautical Twilight 5:30 AM EST 6:39 PM EST
Astronomical Twilight 4:57 AM EST 7:12 PM EST
Moon 6:54 PM EST (2/26) 6:31 AM EST (2/26)
Length of Visible Light 12h 01m
Length of Day
11h 04m
Full, 99% of the Moon is Illuminated
Feb 26
Full
Mar 4
Last Quarter
Mar 11
New
Mar 19
First Quarter
Mar 27
Full

Hourly Weather History & Observations

Time (EST) Temp. Windchill Dew Point Humidity Pressure Visibility Wind Dir Wind Speed Gust Speed Precip Events Conditions
12:15 AM 30.2 °F - 28.4 °F 93% 30.23 in 4.0 mi Calm Calm - N/A   Overcast
12:35 AM 30.2 °F - 30.2 °F 100% 30.23 in 4.0 mi Calm Calm - N/A   Overcast
12:55 AM 30.2 °F - 28.4 °F 93% 30.23 in 3.0 mi Calm Calm - N/A   Overcast
1:15 AM 30.2 °F - 28.4 °F 93% 30.23 in 2.5 mi Calm Calm - N/A   Overcast
1:35 AM 30.2 °F - 30.2 °F 100% 30.22 in 3.0 mi Calm Calm - N/A   Overcast
1:55 AM 30.2 °F - 30.2 °F 100% 30.22 in 3.0 mi Calm Calm - N/A   Overcast
2:15 AM 30.2 °F - 28.4 °F 93% 30.22 in 2.5 mi Calm Calm - N/A   Overcast
2:35 AM 30.2 °F - 30.2 °F 100% 30.24 in 3.0 mi Calm Calm - N/A   Overcast
2:55 AM 30.2 °F - 28.4 °F 93% 30.25 in 3.0 mi Calm Calm - N/A   Overcast
3:15 AM 30.2 °F - 28.4 °F 93% 30.25 in 3.0 mi Calm Calm - N/A   Overcast
3:35 AM 30.2 °F - 28.4 °F 93% 30.24 in 3.0 mi Calm Calm - N/A   Overcast
3:55 AM 30.2 °F - 28.4 °F 93% 30.25 in 3.0 mi Calm Calm - N/A   Overcast
4:15 AM 30.2 °F - 28.4 °F 93% 30.25 in 2.0 mi Calm Calm - N/A   Overcast
4:35 AM 30.2 °F 26.7 °F 28.4 °F 93% 30.26 in 1.0 mi ESE 3.5 mph - N/A   Overcast
4:55 AM 30.2 °F - 28.4 °F 93% 30.26 in 2.5 mi Calm Calm - N/A   Overcast
5:15 AM 30.2 °F - 28.4 °F 93% 30.26 in 5.0 mi Calm Calm - N/A   Overcast
5:35 AM 30.2 °F 25.4 °F 28.4 °F 93% 30.26 in 10.0 mi ESE 4.6 mph - N/A   Overcast
5:55 AM 28.4 °F 23.3 °F 26.6 °F 93% 30.27 in 8.0 mi South 4.6 mph - N/A   Overcast
6:15 AM 28.4 °F 23.3 °F 28.4 °F 100% 30.27 in 2.5 mi SSE 4.6 mph - N/A   Overcast
6:35 AM 28.4 °F - 28.4 °F 100% 30.27 in 0.5 mi Calm Calm - N/A   Overcast
6:55 AM 28.4 °F - 28.4 °F 100% 30.27 in 4.0 mi Calm Calm - N/A   Overcast
7:15 AM 28.4 °F - 26.6 °F 93% 30.28 in 9.0 mi Calm Calm - N/A   Overcast
7:35 AM 30.2 °F - 28.4 °F 93% 30.28 in 2.0 mi Calm Calm - N/A   Overcast
7:55 AM 28.4 °F - 28.4 °F 100% 30.28 in 1.2 mi Calm Calm - N/A   Overcast
8:15 AM 30.2 °F - 28.4 °F 93% 30.29 in 1.0 mi Calm Calm - N/A   Overcast
8:35 AM 30.2 °F - 28.4 °F 93% 30.28 in 4.0 mi Calm Calm - N/A   Mostly Cloudy
8:55 AM 30.2 °F - 28.4 °F 93% 30.29 in 5.0 mi Calm Calm - N/A   Partly Cloudy
9:15 AM 35.6 °F - 28.4 °F 75% 30.29 in 9.0 mi Calm Calm - N/A   Clear
9:35 AM 33.8 °F - 28.4 °F 81% 30.29 in 10.0 mi Calm Calm - N/A   Clear
9:55 AM 33.8 °F - 28.4 °F 81% 30.28 in 10.0 mi Calm Calm - N/A   Clear
10:15 AM 35.6 °F - 26.6 °F 70% 30.26 in 10.0 mi Calm Calm - N/A   Clear
10:35 AM 37.4 °F - 26.6 °F 65% 30.26 in 10.0 mi Calm Calm - N/A   Clear
10:55 AM 39.2 °F 33.0 °F 24.8 °F 56% 30.26 in 10.0 mi ESE 9.2 mph - N/A   Mostly Cloudy
11:15 AM 37.4 °F 30.3 °F 24.8 °F 60% 30.27 in 10.0 mi SE 10.4 mph 18.4 mph N/A   Scattered Clouds
11:35 AM 39.2 °F 31.6 °F 24.8 °F 56% 30.26 in 10.0 mi SE 12.7 mph - N/A   Partly Cloudy
11:55 AM 39.2 °F 33.6 °F 26.6 °F 61% 30.26 in 10.0 mi ESE 8.1 mph - N/A   Clear
12:15 PM 39.2 °F 32.5 °F 23.0 °F 52% 30.25 in 10.0 mi SE 10.4 mph - N/A   Clear
12:35 PM 37.4 °F 29.3 °F 24.8 °F 60% 30.26 in 10.0 mi SSE 12.7 mph 19.6 mph N/A   Scattered Clouds
12:55 PM 37.4 °F 28.2 °F 26.6 °F 65% 30.26 in 10.0 mi SE 16.1 mph 20.7 mph N/A   Overcast
1:15 PM 37.4 °F 28.9 °F 26.6 °F 65% 30.25 in 10.0 mi ESE 13.8 mph - N/A   Overcast
1:35 PM 37.4 °F 30.3 °F 26.6 °F 65% 30.25 in 10.0 mi ESE 10.4 mph - N/A   Overcast
1:55 PM 37.4 °F 31.4 °F 26.6 °F 65% 30.25 in 10.0 mi SE 8.1 mph - N/A   Overcast
2:35 PM 37.4 °F 31.4 °F 26.6 °F 65% 30.22 in 10.0 mi ESE 8.1 mph - N/A   Overcast
2:55 PM 37.4 °F 29.8 °F 26.6 °F 65% 30.21 in 10.0 mi SE 11.5 mph - N/A   Overcast
3:15 PM 37.4 °F 30.3 °F 26.6 °F 65% 30.21 in 10.0 mi SE 10.4 mph - N/A   Overcast
3:35 PM 37.4 °F 31.4 °F 28.4 °F 70% 30.20 in 10.0 mi SE 8.1 mph - N/A   Overcast
3:55 PM 37.4 °F 30.8 °F 26.6 °F 65% 30.21 in 10.0 mi SE 9.2 mph 16.1 mph N/A   Overcast
4:15 PM 37.4 °F 30.8 °F 26.6 °F 65% 30.21 in 10.0 mi SE 9.2 mph - N/A   Overcast
4:35 PM 37.4 °F 32.8 °F 26.6 °F 65% 30.20 in 10.0 mi SSE 5.8 mph - N/A   Overcast
4:55 PM 37.4 °F 32.8 °F 26.6 °F 65% 30.20 in 10.0 mi SE 5.8 mph - N/A   Overcast
5:15 PM 37.4 °F 32.8 °F 26.6 °F 65% 30.19 in 10.0 mi SSE 5.8 mph - N/A   Overcast
5:35 PM 35.6 °F 29.9 °F 28.4 °F 75% 30.19 in 10.0 mi SSE 6.9 mph - N/A   Overcast
5:55 PM 35.6 °F 29.2 °F 26.6 °F 70% 30.20 in 10.0 mi SSE 8.1 mph - N/A   Overcast
6:15 PM 35.6 °F 28.6 °F 26.6 °F 70% 30.18 in 10.0 mi SSE 9.2 mph - N/A   Overcast
6:35 PM 35.6 °F 29.2 °F 26.6 °F 70% 30.18 in 10.0 mi SE 8.1 mph - N/A   Overcast
6:55 PM 35.6 °F 27.5 °F 26.6 °F 70% 30.18 in 10.0 mi SSE 11.5 mph 20.7 mph N/A   Overcast
7:15 PM 35.6 °F 27.1 °F 26.6 °F 70% 30.18 in 10.0 mi SSE 12.7 mph 17.3 mph N/A   Overcast
7:35 PM 35.6 °F 29.2 °F 26.6 °F 70% 30.18 in 10.0 mi SE 8.1 mph - N/A   Mostly Cloudy
7:55 PM 35.6 °F 28.6 °F 26.6 °F 70% 30.18 in 10.0 mi SE 9.2 mph - N/A   Mostly Cloudy
8:15 PM 35.6 °F 27.1 °F 26.6 °F 70% 30.18 in 10.0 mi SE 12.7 mph - N/A   Mostly Cloudy
8:35 PM 35.6 °F 26.2 °F 28.4 °F 75% 30.18 in 10.0 mi ESE 15.0 mph 21.9 mph N/A   Scattered Clouds
8:55 PM 35.6 °F 26.6 °F 26.6 °F 70% 30.16 in 10.0 mi SE 13.8 mph 19.6 mph N/A   Partly Cloudy
9:15 PM 35.6 °F 26.2 °F 26.6 °F 70% 30.15 in 10.0 mi SE 15.0 mph 24.2 mph N/A   Clear
9:35 PM 33.8 °F 24.8 °F 26.6 °F 75% 30.15 in 10.0 mi SE 12.7 mph 19.6 mph N/A   Clear
10:15 PM 33.8 °F 25.3 °F 24.8 °F 70% 30.14 in 10.0 mi SE 11.5 mph 20.7 mph N/A   Clear
10:35 PM 33.8 °F 23.9 °F 24.8 °F 70% 30.12 in 10.0 mi SE 15.0 mph 21.9 mph N/A   Clear
10:55 PM 33.8 °F 24.8 °F 24.8 °F 70% 30.10 in 10.0 mi SE 12.7 mph 21.9 mph N/A   Clear
11:15 PM 33.8 °F 23.9 °F 24.8 °F 70% 30.09 in 10.0 mi SE 15.0 mph 24.2 mph N/A   Partly Cloudy
11:55 PM 33.8 °F 22.8 °F 24.8 °F 70% 30.09 in 10.0 mi ESE 18.4 mph 26.5 mph N/A   Scattered Clouds